Location: Unspecified
(39.0670°S, 0.0000°E)
Time: 02:50:21
(UTC+00:00)

Envisat - Pass Details

Date: 01 July 2019
Orbit: 764 x 766 km, 98.1° (Epoch: 22 July)

Event Time Altitude Azimuth Distance (km) Brightness Sun altitude
Exits shadow 19:14:37 46° 3° (N) 1,037 3.6 -27.6°
Drops below altitude 10° 19:18:10 10° 352° (N) 2,307 5.6 -28.3°
Sets 19:20:27 0° 350° (N) 3,225 6.4 -28.8°
